Weather in Morozovo

Russia / Ivanovo Oblast     56°43′41″N   40°30′52″E
temp.,
°C
wind,
m/s
gust,
m/s
humid.,
%
clouds,
%
prec.,
mm/h
press.,
hPa
HPBL,
m
27 february, sat
sat2700:00+1wnw51297100 0.5 995770
03:00−1nw61097100 1.4 997578
06:00−11nnw61292100 0.4 1000628
09:00−11n51088100 0.6 1005656
12:00−11n4887100 0.0 1007546
15:00−9nnw4787100 0.1 1009560
18:00−11nnw2694100 0.0 1011215
21:00−13nnw269797 0.1 1013169
28 february, sun
sun2800:00−14nnw239774 0.0 101472
03:00−15nnw229637 0.0 101537
06:00−15nnw229749 0.0 101549
09:00−12nnw129369 0.1 1015188
12:00−8nw138794 0.1 1015407
15:00−5nnw238797 0.1 1016513
18:00−6nnw2394100 0.1 1016120
21:00−7ne1296100 0.1 101972
1 march, mon
mon100:00−8sse019698 0.1 102021
03:00−9sw129796 0.1 102121
06:00−10sw129798 0.1 102221
09:00−8sw129692 0.1 102285
12:00−4sw249288 0.0 1021337
15:00−2sw468991 0.1 1020632
18:00−2wsw41094100 0.1 1017564
21:00−1sw51294100 0.1 1014628
2 march, tue
tue200:00+1w51297100 0.4 1011723
03:00+1w51192100 0.5 1008784
06:000w51197100 0.6 1005786
09:000nw51189100 1.3 10041032
12:00+1nw51093100 0.4 1005960
15:00+1nw5108698 0.6 10051087
18:00−1nw5128798 0.1 1006814
21:00−2nw5129093 0.1 1008639
3 march, wed
wed300:00−3nw5128693 0.1 1009670
03:00−5nw5119295 0.3 1010643
06:00−6nw51191100 0.1 1012636
09:00−7nnw4108998 0.1 1014478
12:00−3nw498830 0.0 1015733
15:00−1nw598865 0.3 10151003
18:00−4nw4108899 0.3 1016632
21:00−4nw389599 0.3 1016346